Regional Weather Roundup
Issued by NWS

Home | Current Version | Previous Version | Text Only | Print | Product List | Glossary On
Versions: 1 2 3 4 5 6 7 8 9 10 11 12 13 14 15 16 17 18 19 20 21 22 23 24 25 26 27
000
ASUS44 KLIX 260806
RWRLA
LOUISIANA WEATHER ROUNDUP
NATIONAL WEATHER SERVICE NEW ORLEANS LA
300 AM CDT SAT MAY 26 2018

NOTE: "FAIR" INDICATES FEW OR NO CLOUDS BELOW 12,000 FEET WITH NO
      SIGNIFICANT WEATHER AND/OR OBSTRUCTIONS TO VISIBILITY.
      SKY/WX - SKY CONDITION AND SIGNIFICANT WEATHER.
      TMP - AIR TEMPERATURE.    DP   - DEWPOINT TEMPERATURE.
      RH  - RELATIVE HUMIDITY.  PRES - PRESSURE.
      HX  - HEAT INDEX.         WCI  - WIND CHILL INDEX.

*  THESE STATIONS ARE NOT NWS OR FAA STATIONS AND ARE NOT UNDER
   NWS QUALITY CONTROL.

LAZ040-048-061>063-065-066-069-260900-
SOUTHEAST LOUISIANA

CITY           SKY/WX    TMP DP  RH WIND       PRES   REMARKS
N.O. INTL ARPT FAIR      72  72 100 CALM      29.88F
N.O. LAKEFRONT FAIR      76  70  82 S5        29.88F
N.O. DOWNTOWN* FAIR      77  71  82 CALM      29.89F
RESERVE*         N/A     73  69  87 CALM      29.88F
SLIDELL        FAIR      69  67  93 CALM      29.88F
BATON ROUGE    FAIR      72  69  90 SE5       29.88F
BOOTHVILLE     FAIR      79  73  82 CALM      29.88F
BELLE CHASSE   FAIR      71  71 100 CALM      29.88F
BOGALUSA*      FAIR      68  65  90 CALM      29.89F
GALLIANO*      FAIR      70  67  91 CALM      29.88F
NEW ROADS*     FAIR      72  69  93 CALM      29.88F
GONZALES*      FAIR      69  69 100 CALM      29.88F
HAMMOND*       FAIR      68  68 100 CALM      29.88F
HOUMA*         FAIR      72  71  96 CALM      29.88F
PORT FOURCHON* SUNNY     77  72  83 CALM      29.89S

$$

LAZ041-044-053-054-260900-
SOUTHWEST LOUISIANA

CITY           SKY/WX    TMP DP  RH WIND       PRES   REMARKS
LAKE CHARLES   FAIR      75  73  93 SE6         N/A
LAFAYETTE      FAIR      74  73  97 S3        29.86F
PATTERSON      FAIR      73  73 100 CALM      29.88F
SALT POINT       N/A    N/A N/A N/A CALM      29.86F
NEW IBERIA     FAIR      72  69  90 CALM      29.88F
CHENAULT AIRPK MOCLDY    74  73  97 E5        29.87F

$$

LAZ027-028-260900-
CENTRAL LOUISIANA

CITY           SKY/WX    TMP DP  RH WIND       PRES   REMARKS
FORT POLK      NOT AVBL
ALEXANDRIA INT FAIR      71  70  96 SE3       29.84F FOG
ALEXANDRIA     FAIR      69  69 100 CALM      29.85F FOG

$$

LAZ001-002-260900-
NORTHWEST LOUISIANA

CITY           SKY/WX    TMP DP  RH WIND       PRES   REMARKS
SHREVEPORT     FAIR      73  71  93 S6        29.83F
BARKSDALE AFB  CLOUDY    75  71  88 SE6       29.83F
DTN SHREVEPORT FAIR      77  70  79 S9        29.83F

$$

LAZ014-016-260900-
NORTHEAST LOUISIANA

CITY           SKY/WX    TMP DP  RH WIND       PRES   REMARKS
MONROE         FAIR      71  70  96 CALM      29.86F
TALLULAH       FAIR      71  71 100 S3        29.87F

$$





USA.gov is the U.S. government's official web portal to all federal, state and local government web resources and services.